sat.trackr.live / text

‹ back to catalog

STARLINK-4776

NORAD 53837 · 2022-114V

PAYLOAD ACTIVE UNKNOWN

§ Identity

Operator
Country
US
Launch date
2022-09-19
Launch site
AFETR
Launch vehicle
Mass (kg)
RCS (m²)

Purposes: comms

External: N2YO · Heavens-Above · Gunter

§ Orbital elements

Epoch: 2026-05-25T04:25:56.937792Z

Period
95.44 min
Inclination
53.2137°
Eccentricity
0.0001363
Mean motion
15.08771576 rev/d
Perigee alt
539.0 km
Apogee alt
540.9 km
Semi-major
6,918.1 km
B*
8.6284e-4
RAAN
320.4317°
Arg perigee
107.4094°
Mean anomaly
252.7047°
Rev number
20,438

§ Raw data

STARLINK-47761 53837U 22114V   26145.18468678  .00013445  00000+0  86284-3 0  99992 53837  53.2137 320.4317 0001363 107.4094 252.7047 15.08771576204388

JSON: /api/v1/satellites/53837 · /tle

For live sub-satellite position, see the globe view (requires WebGL).

§ Visibility from observer

Set your observer location to see the next 7 days of passes ≥ 10°. The values pass through the URL so the page stays shareable.

No JS? Fill the form by hand. The geolocation button needs JavaScript.